IS0KST Weather Reports


Display with metric or nautical units.
time (UTC)temp
F
wind
direction
speed
MPH
gust
MPH
rain 1hr
in
rain 24hr
in
rain mn
in
humidity
%
barometer
mb
20260504082004 67 147 5.0 9.0 0.00 0.00 0.00 80 1015.7
20260504081503 67 141 3.0 8.0 0.00 0.00 0.00 79 1015.8
20260504081004 67 134 2.0 6.0 0.00 0.00 0.00 79 1015.8
20260504080503 66 104 2.0 8.0 0.00 0.00 0.00 79 1015.8
20260504050503 62 42 0.0 0.0 0.00 0.00 0.00 74 1015.8
20260504050004 62 42 0.0 0.0 0.00 0.00 0.00 74 1015.8
20260504045504 62 42 0.0 0.0 0.00 0.00 0.00 74 1015.9
20260504045004 62 42 0.0 0.0 0.00 0.00 0.00 74 1015.8
20260504044504 61 42 0.0 0.0 0.00 0.00 0.00 74 1015.9
20260504044004 61 42 0.0 0.0 0.00 0.00 0.00 74 1016.0
20260504043503 61 42 0.0 0.0 0.00 0.00 0.00 74 1016.0
20260504043004 61 42 0.0 0.0 0.00 0.00 0.00 74 1015.9
20260504042503 61 42 0.0 0.0 0.00 0.00 0.00 74 1015.9
20260504041504 61 42 0.0 0.0 0.00 0.00 0.00 74 1015.9
20260504041004 61 42 0.0 0.0 0.00 0.00 0.00 74 1015.9
20260504040503 61 42 0.0 0.0 0.00 0.00 0.00 74 1015.9
20260504035003 60 42 0.0 0.0 0.00 0.00 0.00 73 1015.6
20260504034504 60 42 0.0 0.0 0.00 0.00 0.00 73 1015.6
20260504034004 60 42 0.0 0.0 0.00 0.00 0.00 73 1015.6
20260504033503 60 42 0.0 0.0 0.00 0.00 0.00 73 1015.7
20260504033004 60 42 0.0 0.0 0.00 0.00 0.00 73 1015.6
20260504032503 60 42 0.0 1.0 0.00 0.00 0.00 73 1015.7
20260504032003 60 42 0.0 2.0 0.00 0.00 0.00 72 1015.6
20260504031504 60 42 0.0 2.0 0.00 0.00 0.00 72 1015.7
20260504031004 60 42 0.0 2.0 0.00 0.00 0.00 72 1015.8
20260504030504 60 42 1.0 2.0 0.00 0.00 0.00 72 1015.9
20260504030003 60 42 0.0 0.0 0.00 0.00 0.00 72 1016.1
20260504025504 60 42 0.0 0.0 0.00 0.00 0.00 72 1016.1
20260504025003 60 42 0.0 0.0 0.00 0.00 0.00 72 1016.2
20260504024504 60 42 0.0 0.0 0.00 0.00 0.00 72 1016.2
20260504024004 60 42 0.0 0.0 0.00 0.00 0.00 72 1016.1
20260504023004 60 42 0.0 2.0 0.00 0.00 0.00 72 1016.1
20260504022503 60 42 1.0 3.0 0.00 0.00 0.00 72 1016.2
20260504022004 60 42 0.0 1.0 0.00 0.00 0.00 72 1016.2
20260504021004 60 42 0.0 0.0 0.00 0.00 0.00 72 1016.1
20260504020504 60 42 0.0 1.0 0.00 0.00 0.00 73 1016.1
20260504020004 60 42 0.0 2.0 0.00 0.00 0.00 73 1016.0
20260504015004 60 42 1.0 3.0 0.00 0.00 0.00 73 1016.0
20260504014003 60 31 1.0 3.0 0.00 0.00 0.00 74 1016.0
20260504013504 60 31 0.0 3.0 0.00 0.00 0.00 74 1016.0
20260504013004 60 31 0.0 3.0 0.00 0.00 0.00 74 1016.1
20260504012503 60 31 1.0 3.0 0.00 0.00 0.00 73 1016.0
20260504012004 61 22 2.0 3.0 0.00 0.00 0.00 74 1016.1
20260504011504 61 15 2.0 3.0 0.00 0.00 0.00 74 1016.1
20260504011003 61 16 1.0 3.0 0.00 0.00 0.00 74 1016.1
20260504010504 62 16 1.0 3.0 0.00 0.00 0.00 73 1016.3
20260504010004 62 16 3.0 3.0 0.00 0.00 0.00 74 1016.3
20260504005503 62 121 2.0 5.0 0.00 0.00 0.00 75 1016.4
20260504005004 62 117 1.0 3.0 0.00 0.00 0.00 74 1016.6
20260504004504 62 113 1.0 3.0 0.00 0.00 0.00 72 1016.7
20260504004004 62 113 1.0 3.0 0.00 0.00 0.00 73 1016.8
20260504003503 63 145 0.0 2.0 0.00 0.00 0.00 74 1016.9
20260504003003 63 145 2.0 7.0 0.00 0.00 0.00 74 1017.1
20260504002004 62 199 2.0 7.0 0.00 0.00 0.00 72 1017.2
20260504001004 62 96 1.0 1.0 0.00 0.00 0.00 70 1017.2
20260504000004 62 96 0.0 1.0 0.00 0.00 0.00 71 1017.4
20260503235004 62 96 0.0 0.0 0.00 0.00 0.00 71 1017.3
20260503234504 62 96 0.0 3.0 0.00 0.00 0.00 71 1017.3
20260503234004 62 96 1.0 3.0 0.00 0.00 0.00 71 1017.3
20260503233504 62 93 1.0 3.0 0.00 0.00 0.00 72 1017.3
20260503232504 62 80 3.0 7.0 0.00 0.00 0.00 72 1017.3
20260503232004 62 101 3.0 7.0 0.00 0.00 0.00 72 1017.3
20260503231504 62 85 4.0 12.0 0.00 0.00 0.00 71 1017.3
20260503231004 63 93 5.0 12.0 0.00 0.00 0.00 72 1017.1
20260503230003 63 106 3.0 9.0 0.00 0.00 0.00 74 1018.3
20260503225003 63 121 5.0 8.0 0.00 0.00 0.00 74 1018.3
20260503224504 63 117 2.0 9.0 0.00 0.00 0.00 74 1018.3
20260503224003 63 148 3.0 9.0 0.00 0.00 0.00 75 1018.3
20260503223504 63 140 4.0 8.0 0.00 0.00 0.00 75 1018.1
20260503222504 63 158 6.0 12.0 0.00 0.00 0.00 74 1018.1
20260503221004 63 151 5.0 12.0 0.00 0.00 0.00 73 1017.7
20260503220004 63 107 5.0 13.0 0.00 0.00 0.00 72 1017.3
20260503215003 63 103 4.0 12.0 0.00 0.00 0.00 71 1017.2
20260503214503 63 110 5.0 10.0 0.00 0.00 0.00 71 1017.2
20260503214003 63 101 5.0 10.0 0.00 0.00 0.00 71 1017.2
20260503213504 63 105 4.0 10.0 0.00 0.00 0.00 70 1017.5
20260503213003 63 95 4.0 9.0 0.00 0.00 0.00 70 1017.6
20260503212504 63 110 3.0 8.0 0.00 0.00 0.00 70 1017.6
20260503211504 63 120 2.0 8.0 0.00 0.00 0.00 69 1017.5
20260503210503 63 103 5.0 9.0 0.00 0.00 0.00 69 1017.4
20260503210003 63 98 3.0 8.0 0.00 0.00 0.00 70 1017.4
20260503205504 63 96 4.0 9.0 0.00 0.00 0.00 70 1017.6
20260503204504 63 105 5.0 8.0 0.00 0.00 0.00 70 1017.5
20260503204003 63 94 3.0 9.0 0.00 0.00 0.00 70 1017.6
20260503203504 63 91 4.0 7.0 0.00 0.00 0.00 70 1017.6
20260503203004 63 96 3.0 7.0 0.00 0.00 0.00 68 1017.7
20260503202504 63 82 3.0 9.0 0.00 0.00 0.00 69 1017.6
20260503202003 63 95 6.0 12.0 0.00 0.00 0.00 71 1017.4
20260503201504 63 105 4.0 9.0 0.00 0.00 0.00 72 1017.4
20260503201004 63 104 5.0 10.0 0.00 0.00 0.00 73 1017.5
20260503200503 63 124 5.0 9.0 0.00 0.00 0.00 73 1017.6
20260503195003 63 124 5.0 9.0 0.00 0.00 0.00 74 1017.6
20260503194504 63 129 4.0 12.0 0.00 0.00 0.00 74 1017.6
20260503194003 63 135 4.0 12.0 0.00 0.00 0.00 74 1017.6
20260503193504 64 143 4.0 9.0 0.00 0.00 0.00 75 1017.5
20260503193004 63 125 5.0 12.0 0.00 0.00 0.00 74 1017.5
20260503192504 63 136 5.0 12.0 0.00 0.00 0.00 74 1017.5
20260503192004 64 133 6.0 12.0 0.00 0.00 0.00 74 1017.3
20260503191004 64 121 7.0 15.0 0.00 0.00 0.00 74 1017.1
20260503190504 64 121 5.0 10.0 0.00 0.00 0.00 74 1017.0
20260503190003 64 115 4.0 12.0 0.00 0.00 0.00 73 1017.0
20260503185504 64 139 6.0 12.0 0.00 0.00 0.00 72 1016.9
20260503184004 65 128 6.0 12.0 0.00 0.00 0.00 69 1016.8
20260503183504 65 143 5.0 12.0 0.00 0.00 0.00 67 1016.7
20260503183004 65 128 5.0 10.0 0.00 0.00 0.00 66 1016.7
20260503182503 65 125 5.0 10.0 0.00 0.00 0.00 65 1016.6
20260503182005 66 121 5.0 12.0 0.00 0.00 0.00 64 1016.6
20260503181505 66 138 5.0 12.0 0.00 0.00 0.00 62 1016.6
20260503181004 66 134 3.0 12.0 0.00 0.00 0.00 62 1016.6
20260503180503 66 128 4.0 12.0 0.00 0.00 0.00 61 1016.7
20260503180004 66 136 3.0 8.0 0.00 0.00 0.00 60 1016.5
20260503175504 66 150 5.0 10.0 0.00 0.00 0.00 61 1016.5
20260503175004 66 146 4.0 12.0 0.00 0.00 0.00 59 1016.5
20260503174504 66 132 6.0 12.0 0.00 0.00 0.00 59 1016.4
20260503174003 66 147 4.0 10.0 0.00 0.00 0.00 62 1016.4
20260503173504 66 120 4.0 8.0 0.00 0.00 0.00 64 1016.6
20260503172504 66 144 4.0 12.0 0.00 0.00 0.00 64 1016.6
20260503172003 66 142 3.0 7.0 0.00 0.00 0.00 65 1016.6
20260503171004 66 139 5.0 8.0 0.00 0.00 0.00 64 1016.8
20260503170503 66 129 4.0 8.0 0.00 0.00 0.00 65 1016.8
20260503151004 68 143 6.0 13.0 0.00 0.00 0.00 68 1017.3
20260503131004 67 143 8.0 15.0 0.00 0.00 0.00 66 1018.5
20260503110503 67 137 8.0 14.0 0.00 0.00 0.00 62 1019.4
20260503090504 67 141 9.0 14.0 0.00 0.00 0.00 61 1020.1